Weather History for International Falls, MN

Change the Weather History Date:

Sunday, January 6, 2013

  Actual Average Record
Temperature  
Mean Temperature 5 °F 4 °F  
Max Temperature 18 °F 15 °F 41 °F (2008)
Min Temperature -9 °F -6 °F -55 °F (1909)
Degree Days  
Heating Degree Days 60 61  
Month to date heating degree days 337 362  
Since 1 July heating degree days 4468 4537  
Cooling Degree Days 0 0  
Month to date cooling degree days 0 0  
Year to date cooling degree days 0 0  
Moisture  
Dew Point 4 °F    
Average Humidity 84    
Maximum Humidity 95    
Minimum Humidity 73    
Precipitation  
Precipitation T in 0.02 in 0.42 in (2000)
Month to date precipitation 0.07 0.14  
Year to date precipitation 0.07 0.14  
Snow  
Snow T in 0.50 in 4.20 in (1980)
Month to date snowfall 1.6 3.1  
Since 1 July snowfall 26.9 34.1  
Snow Depth 9.00 in    
Sea Level Pressure  
Sea Level Pressure 30.09 in    
Wind  
Wind Speed 3 mph (SW)    
Max Wind Speed 12 mph    
Max Gust Speed 22 mph    
Visibility 10 miles    
Events      
T = Trace of Precipitation, MM = Missing Value Source: NWS Daily Summary

Daily Weather History Graph

Daily Weather History Graph

Search for Another Location

Airport:

Trip Planner

Search our weather history database for the weather conditions in past years. The results will help you decide how hot, cold, wet, or windy it might be!

Date:

Astronomy

Jan. 06, 2013 Rise Set
Actual Time 8:04 AM CST 4:34 PM CST
Civil Twilight 7:28 AM CST 5:10 PM CST
Nautical Twilight 6:48 AM CST 5:50 PM CST
Astronomical Twilight 6:10 AM CST 6:28 PM CST
Moon 2:08 AM CST (1/6) 12:11 PM CST (1/6)
Length of Visible Light 9h 42m
Length of Day
8h 29m
Waning Crescent, 33% of the Moon is Illuminated
Jan 6
Waning Crescent
Jan 11
New
Jan 18
First Quarter
Jan 26
Full
Feb 3
Last Quarter

Hourly Weather History & Observations

Time (CST) Temp. Windchill Dew Point Humidity Pressure Visibility Wind Dir Wind Speed Gust Speed Precip Events Conditions
12:05 AM 12.2 °F 1.7 °F 10.4 °F 92% 29.99 in 10.0 mi NNW 6.9 mph - N/A   Overcast
12:55 AM 12.9 °F 1.6 °F 10.0 °F 88% 30.08 in 10.0 mi North 8.1 mph - N/A   Overcast
1:03 AM 12.2 °F 1.7 °F 8.6 °F 85% 30.01 in 10.0 mi North 6.9 mph - N/A   Overcast
1:55 AM 12.9 °F 6.9 °F 10.0 °F 88% 30.09 in 10.0 mi WNW 3.5 mph - N/A   Overcast
2:12 AM 12.2 °F 4.3 °F 8.6 °F 85% 30.03 in 10.0 mi WNW 4.6 mph - N/A   Overcast
2:30 AM 10.4 °F 4.0 °F 8.6 °F 92% 30.04 in 10.0 mi WNW 3.5 mph - N/A   Scattered Clouds
2:55 AM 9.0 °F - 6.1 °F 88% 30.12 in 10.0 mi Calm Calm - N/A   Clear
3:55 AM 1.0 °F - -0.9 °F 91% 30.15 in 10.0 mi Calm Calm - N/A   Clear
4:55 AM -0.0 °F - -4.0 °F 83% 30.16 in 10.0 mi Calm Calm - N/A   Clear
5:55 AM -5.8 °F - -7.6 °F 92% 30.08 in 10.0 mi Calm Calm - N/A   Clear
6:55 AM -5.1 °F - -9.9 °F 80% 30.20 in 10.0 mi Calm Calm - N/A   Clear
7:55 AM -7.1 °F - -11.9 °F 79% 30.21 in 10.0 mi Calm Calm - N/A   Clear
8:55 AM -6.0 °F - -9.9 °F 83% 30.21 in 10.0 mi Calm Calm - N/A   Clear
9:55 AM 1.9 °F - -0.9 °F 88% 30.22 in 10.0 mi Calm Calm - N/A   Clear
10:55 AM 7.0 °F - 3.0 °F 84% 30.22 in 10.0 mi Calm Calm - N/A   Clear
11:55 AM 12.0 °F - 6.1 °F 77% 30.21 in 10.0 mi Calm Calm - N/A   Clear
12:55 PM 12.9 °F - 7.0 °F 77% 30.17 in 10.0 mi Calm Calm - N/A   Clear
1:55 PM 15.1 °F - 9.0 °F 77% 30.14 in 10.0 mi Calm Calm - N/A   Clear
2:55 PM 16.0 °F 7.4 °F 8.1 °F 71% 30.15 in 10.0 mi SSW 5.8 mph - N/A   Clear
3:55 PM 16.0 °F 10.4 °F 9.0 °F 74% 30.13 in 10.0 mi SSW 3.5 mph - N/A   Clear
4:55 PM 12.9 °F 5.2 °F 7.0 °F 77% 30.10 in 10.0 mi SSE 4.6 mph - N/A   Clear
5:55 PM 9.0 °F 2.4 °F 6.1 °F 88% 30.09 in 10.0 mi SE 3.5 mph - N/A   Clear
6:55 PM 10.9 °F 2.9 °F 7.0 °F 84% 30.07 in 10.0 mi SSE 4.6 mph - N/A   Clear
7:55 PM 14.0 °F 6.5 °F 8.1 °F 77% 30.02 in 10.0 mi Variable 4.6 mph - N/A   Clear
8:55 PM 15.8 °F 6.1 °F 8.6 °F 73% 29.88 in 10.0 mi South 6.9 mph - N/A   Clear
9:55 PM 16.0 °F 4.4 °F 10.0 °F 77% 29.89 in 10.0 mi South 9.2 mph - N/A   Clear
10:55 PM 17.1 °F 7.6 °F 10.9 °F 77% 29.87 in 10.0 mi Variable 6.9 mph - N/A   Clear
11:55 PM 18.0 °F 7.7 °F 12.9 °F 81% 29.83 in 10.0 mi South 8.1 mph 18.4 mph N/A   Clear